Lid_Strength_Index
1 4 1 5 10 11 14 11 9 9 9 7 6 7 8 8 10 12 2 1 2 0 -1 -1 -1 -2 -2 -2 -2 -2 -2 -2 -2 -2 -2 -2 -2 -2 -2 -2 -3 -2 -2 -2 -2 -2 -2 -2 -2
2 3 3 7 13 16 14 10 10 9 7 6 6 6 8 9 5 4 3 2 2 -0 -0 -1 -1 -1 -2 -2 -2 -2 -2 -2 -2 -2 -2 -2 -2 -2 -2 -2 -2 -2 -2 -2 -2 -2 -2 -2 -2
2 3 7 10 12 14 14 9 8 8 6 7 8 6 7 8 4 4 2 2 0 -0 -0 -1 -1 -1 -2 -2 -2 -2 -2 -2 -3 -2 -2 -2 -2 -2 -2 -2 -2 -3 -2 -2 -2 -2 -2 -2 -2
6 5 6 12 13 10 9 9 7 8 7 6 6 9 5 3 3 2 3 1 0 0 -0 -0 -1 -1 -2 -2 -2 -2 -2 -2 -3 -2 -2 -2 -2 -2 -2 -2 -3 -2 -2 -2 -2 -2 -2 -2 -2
7 7 12 13 12 10 9 7 7 8 8 7 6 9 8 4 2 3 3 0 1 0 -0 -0 -1 -1 -1 -2 -2 -2 -2 -2 -3 -2 -2 -2 -2 -3 -2 -2 -2 -2 -2 -2 -2 -2 -2 -1 -1
10 7 13 15 12 9 8 7 7 7 7 7 7 8 7 3 3 4 3 1 0 0 -0 -0 1 0 -1 -1 -1 -2 -2 -3 -3 -3 -2 -2 -3 -3 -2 -2 -2 -2 -2 -2 -2 -1 -2 -1 -1
11 11 13 12 11 10 8 7 8 7 7 8 6 9 6 4 3 4 2 1 0 -0 -0 -0 -0 0 1 -0 -1 -1 -2 -2 -3 -3 -2 -3 -2 -2 -3 -3 -3 -2 -2 -2 -2 -2 -1 -1 -0
10 11 12 12 12 11 8 8 7 7 8 6 6 9 9 4 2 3 2 1 1 0 -0 -0 -0 -0 -0 0 1 -0 -1 -2 -2 -2 -1 -1 -1 -1 -1 -2 -3 -3 -2 -2 -2 -1 -1 -1 -0
9 12 13 12 11 10 7 8 6 7 7 7 5 5 4 2 2 3 3 3 2 1 0 -0 -0 -0 0 0 1 1 1 -1 -1 -0 0 1 1 0 0 0 -2 -3 -2 -2 -1 -1 -1 -1 -0
12 13 12 8 9 9 7 8 7 8 8 7 7 4 3 3 3 3 3 4 3 2 1 1 0 -0 -0 -1 0 0 0 -0 -0 -0 0 1 1 1 0 1 -0 -1 -1 -1 -2 -2 -1 0 2
12 13 9 9 9 9 8 8 6 8 9 7 8 6 4 4 4 4 4 4 3 2 1 1 0 0 0 0 1 1 1 1 0 0 0 0 1 1 1 1 1 1 1 1 0 -0 0 1 2
11 10 10 9 8 10 10 8 8 8 8 5 5 4 4 5 4 4 3 3 3 2 2 1 1 1 1 1 1 1 0 1 1 1 0 1 1 2 2 2 2 2 2 2 2 2 1 2 2
10 10 10 8 7 9 9 10 9 8 6 5 4 4 5 4 4 3 3 3 2 2 2 1 1 1 1 1 1 0 0 0 0 0 0 0 1 2 2 2 2 2 2 2 3 2 2 1 1
8 9 9 8 8 9 10 11 9 8 6 5 5 5 5 4 4 4 3 3 3 2 2 2 1 1 1 1 1 1 0 0 0 0 0 0 0 1 1 2 2 2 2 2 2 1 1 2 2
8 11 10 9 8 10 10 12 11 8 6 6 6 5 5 4 4 4 3 3 3 2 2 1 1 0 1 1 1 1 1 1 1 1 1 0 0 1 1 1 2 1 1 1 2 2 2 2 2
11 12 15 10 8 8 10 14 11 9 8 7 6 6 5 5 4 3 3 2 2 2 2 1 1 1 0 1 1 1 1 1 1 1 1 1 1 1 1 2 2 1 1 2 2 2 2 2 2
12 16 15 12 8 8 9 14 10 9 10 9 8 7 6 5 4 3 2 2 2 2 2 2 2 2 1 0 0 0 0 1 1 1 1 1 1 0 1 2 1 1 1 2 2 2 2 3 2
17 15 14 14 11 10 11 11 10 9 10 11 9 7 7 5 5 3 3 2 2 2 2 2 1 1 1 0 0 0 1 1 0 1 1 1 0 0 1 1 1 1 1 1 1 1 2 2 3
13 14 14 12 9 10 11 11 9 9 9 11 11 11 10 6 4 3 3 3 2 2 2 2 2 1 1 2 1 1 1 1 1 0 0 1 1 1 1 1 1 1 1 1 0 1 2 3 3
13 15 16 13 11 11 12 12 10 9 9 9 10 11 11 10 6 4 3 3 3 3 2 2 2 2 1 1 1 1 2 1 0 0 1 1 1 1 1 1 1 1 1 0 1 1 3 3 3
13 15 15 15 14 13 13 14 12 10 10 8 8 9 10 10 10 6 4 4 3 3 3 2 2 2 1 1 1 2 2 2 1 1 1 1 1 1 1 1 1 1 1 1 1 1 1 3 3
15 11 12 13 14 17 14 19 15 12 10 9 8 8 10 10 9 8 6 5 5 4 3 3 2 1 1 1 1 2 2 3 2 2 1 1 1 1 1 1 1 1 1 1 1 1 1 1 3
13 11 11 11 13 17 17 18 17 13 14 12 9 8 10 11 12 13 12 11 11 11 10 8 5 3 3 2 1 2 2 2 2 1 2 1 1 1 1 1 1 1 1 1 1 1 1 1 2
10 12 12 11 13 19 17 17 18 14 13 11 10 8 12 12 12 13 12 11 11 10 11 12 11 10 9 9 7 2 2 3 3 3 2 2 1 1 1 1 1 1 1 1 2 1 1 1 1
11 14 19 20 20 21 16 17 16 13 14 12 13 11 11 11 12 11 11 11 11 10 9 9 9 10 10 10 9 9 5 3 3 3 3 3 3 2 1 1 1 1 1 1 1 2 2 1 1
13 13 18 23 21 21 14 18 17 11 11 13 13 12 11 11 11 11 10 10 11 10 10 9 9 9 9 9 9 9 8 7 4 2 2 2 2 2 1 1 1 2 1 1 1 1 2 1 1
13 14 13 16 18 18 17 16 13 12 13 12 11 11 11 11 11 11 10 10 10 10 10 10 10 10 9 9 9 9 8 7 6 5 4 2 3 2 2 1 2 2 2 3 2 2 2 2 2
11 9 15 15 23 24 19 19 17 15 13 11 11 10 10 9 10 10 10 10 10 10 10 10 10 10 10 10 10 10 10 9 9 8 7 6 4 3 2 2 2 2 3 3 3 3 3 3 2
13 14 12 13 17 19 20 19 14 14 11 11 10 10 10 10 9 10 10 10 10 10 11 11 11 11 11 11 10 11 11 10 10 9 9 9 8 8 7 6 5 4 3 4 3 4 5 5 5
11 12 12 15 17 17 16 18 12 11 10 10 10 9 10 9 9 9 9 10 11 11 11 11 11 11 12 12 11 11 11 11 11 11 11 11 10 10 9 9 8 7 6 6 5 5 5 5 6